Weather in Oktemtsy

Russia / Sakha (Yakutia) Republic     61°40′26″N   129°25′31″E
В апреле 2022 года жителям России запретили посещать сайт meteo.paraplan.net по решению Генеральной прокуратуры. Аудитория сайта уменьшилась в 10 раз. Владельцы сайта не видят смысла в поддержке погодного сервера в таких условиях. Сайт будет закрыт в октябре.
temp.,
°C
wind,
m/s
gust,
m/s
humid.,
%
clouds,
%
prec.,
mm/h
press.,
hPa
HPBL,
m
3 october, mon
mon300:00−4nw3782100 0.0 1017413
03:00−4wnw3976100 0.0 1018575
06:00−4wnw4974100 0.0 1018659
09:00−3wnw4964100 0.0 1019791
12:000wnw4647100 0.0 10191370
15:00+1nw4643100 0.0 10191542
18:00−3nw276276 0.0 1019182
21:00−4wnw287150 0.0 1020271
4 october, tue
tue400:00−5wnw377451 0.0 1020297
03:00−5wnw377995 0.0 1019468
06:00−5nw258398 0.0 1019382
09:00−3nnw3465100 0.0 1019747
12:00−1nw345694 0.0 10181051
15:000nw465298 0.0 10171289
18:00−2nw387199 0.0 1016456
21:00−4nw498474 0.0 1016547
5 october, wed
wed500:00−4nw497983 0.0 1015598
03:00−4nw497786 0.0 1013600
06:00−4nw497498 0.0 1012738
09:00−3nw586896 0.0 1011878
12:00−1nw685898 0.0 10101106
15:00−1nw585896 0.0 10091138
18:00−2nw5106984 0.0 1009773
21:00−3wnw4117515 0.0 1008711
6 october, thu
thu600:00−4wnw411775 0.0 1007599
03:00−5w4108859 0.0 1006472
06:00−5w399253 0.0 1006343
09:00−2w367655 0.0 1006472
12:00+1wnw3462100 0.0 1006898
15:00+1wnw3461100 0.0 1006960
18:00−1wnw2478100 0.0 1007113
21:00−1nw3673100 0.0 1009498
7 october, fri
fri700:00−3wnw2694100 0.3 1010472
03:00−3wnw3887100 0.6 1011664
06:00−4nw488292 0.1 1013688
09:00−4wnw5772100 0.2 1014841
12:00−3nw5662100 0.1 10161155
15:00−3wnw5762100 0.1 10171189
18:00−4wnw497398 0.0 1019972
21:00−5wnw497166 0.1 1020650